Regional Weather Roundup
Issued by NWS Burlington, VT

Home | Current Version | Previous Version | Text Only | Print | Product List | Glossary On
Versions: 1 2 3 4 5 6 7 8 9 10 11 12 13 14 15 16 17 18 19 20 21 22 23 24 25 26 27 28 29 30 31 32 33 34 35 36 37 38 39 40 41 42 43 44 45 46 47 48 49 50
539
ASUS41 KBTV 230430
RWRBTV
VERMONT REGIONAL WEATHER ROUNDUP
NATIONAL WEATHER SERVICE BURLINGTON VT
1200 AM EDT THU MAR 23 2017

NOTE: "FAIR" INDICATES FEW OR NO CLOUDS BELOW 12,000 FEET WITH NO
SIGNIFICANT WEATHER AND/OR OBSTRUCTIONS TO VISIBILITY.

* THESE REPORTS ARE NOT UNDER NWS QUALITY CONTROL AND/OR DO NOT
  REPORT WEATHER SUCH AS PRECIPITATION AND FOG.

VTZ001>019-230500-
_____VERMONT_____


CITY           SKY/WX    TMP DP  RH WIND       PRES   REMARKS
BURLINGTON     CLEAR     16  -2  45 NW5       30.41S WCI   9
MONTPELIER     CLEAR     11  -4  51 SE3       30.35S
MORRISVILLE    CLEAR      7  -5  57 CALM      30.37R
ST. JOHNSBURY*   N/A     13  -6  42 MISG      30.31S
LYNDONVILLE*   FAIR      10  -6  47 W8        30.30R WCI  -2
MIDDLEBURY*    FAIR      14  -5  42 N6        30.39S WCI   5
RUTLAND*       CLEAR     11  -4  51 W3        30.38R
SPRINGFIELD    CLEAR     14  -9  35 NW3       30.36R
HIGHGATE*      FAIR      10  -2  60 CALM      30.42S
NEWPORT*       FAIR      10  -7  46 NW6       30.33R WCI   0
BENNINGTON     CLEAR     15  -6  39 NW7       30.38R WCI   5
SUTTON*          N/A      7 N/A N/A MISG        N/A
ISLAND POND*     N/A      5 N/A N/A S1          N/A
GALLUP MILLS*    N/A      9 N/A N/A MISG        N/A
UNION VILLAGE*   N/A     14 N/A N/A MISG        N/A
MT. MANSFIELD*   N/A     -2 N/A N/A W29         N/A  WCI -28

_____LAKE CHAMPLAIN_____


CITY           SKY/WX    TMP DP  RH WIND       PRES   REMARKS
BURTON ISLAND*   N/A     18   5  57 NW7         N/A  WCI   8
COLCHESTER RF*   N/A     21   5  49 NW18        N/A  WCI   6
DIAMOND ISL*     N/A     21  -2  35 N13         N/A  WCI   9

$$

NYZ007-026>031-035-052-083-087-230500-
_____NORTHERN NEW YORK_____


CITY           SKY/WX    TMP DP  RH WIND       PRES   REMARKS
PLATTSBURGH    CLEAR     13  -3  49 W5        30.42S WCI   5
SARANAC LAKE   CLEAR     -2  -9  72 VRB5      30.31S WCI -12
MASSENA        CLEAR      9  -1  64 SW5       30.48R WCI   1
STARK FALLS*     N/A      9 N/A N/A W2          N/A
WATERTOWN      PTCLDY     6   4  91 CALM      30.48R
ALBANY         CLEAR     19  -3  38 NW12      30.44S WCI   7
GLENS FALLS    CLEAR     17  -5  37 NW7       30.43R WCI   8

$$
NHZ002-005-011-230500-
_____NEW HAMPSHIRE_____


CITY           SKY/WX    TMP DP  RH WIND       PRES   REMARKS
LEBANON        CLEAR     15  -4  42 NW9       30.34S WCI   3
KEENE          CLEAR     15  -4  42 N6        30.36R WCI   6
MT WASHINGTON  ICE FOG  -15 -15 100 NW79G87     N/A  VSB 1/16WCI -58
PLYMOUTH       FAIR      15  -5  41 NW15G23   30.30R WCI   0
WHITEFIELD     CLEAR     10  -7  46 NW5       30.27S WCI   2

$$

_____REGIONAL QUEBEC LOCATIONS_____


CITY           SKY/WX    TMP DP  RH WIND       PRES   REMARKS
MONTREAL       CLEAR     16  -4  41 W6        30.43R WCI   7
QUEBEC CITY    PTCLDY     9  -8  47 W8        30.31S WCI  -4
SHERBROOKE     CLEAR      7  -6  56 W7        30.31R WCI  -5

_____REGIONAL ONTARIO LOCATIONS_____


CITY           SKY/WX    TMP DP  RH WIND       PRES   REMARKS
OTTAWA         CLEAR     18   0  45 NW10      30.45R WCI   6

______KEY______
VSB  - VISIBILITY IN MILES
WCI  - WIND CHILL INDEX
HX   - HEAT INDEX
$$
NNNN




USA.gov is the U.S. government's official web portal to all federal, state and local government web resources and services.